Flag Weather past 2 weeks in Hargeisa, Somalia

Now
75 °F

Passing clouds.


Feels Like: 77 °F
Forecast: 64 / 82 °F
Wind: 5 mph from Northeast

Location: Aden

Current Time: Nov 24, 2014 at 3:14:41 AM

Latest Report: Nov 24, 2014 at 2:00 AM


Visibility: N/A

Pressure: 29.86 "Hg

Humidity: 65%

Dew point: 63 °F

Location of HargeisaLocation

Historic Weather in Hargeisa — Graph

°F

Hargeisa temperature yesterday

Maximum temperature yesterday: 84 °F (at 10:00 AM)
Minimum temperature yesterday: 73 °F (at 4:00 AM)
Average temperature yesterday: 79 °F

Past Weeks' High & Low Weather Summary

 TemperatureHumidityPressure
High90 °F (Nov 10, 2:00 PM)78% (Nov 22, 4:00 AM)30.07 "Hg (Nov 22, 4:00 AM)
Low73 °F (Nov 15, 6:00 AM)43% (Nov 9, 2:00 PM)29.65 "Hg (Nov 14, 7:00 PM)
Average82 °F59%29.95 "Hg
* Reported Nov 9 2:00 AM — Nov 24 2:00 AM, Hargeisa, Weather by CustomWeather, © 2014

Note: Actual official high and low records may vary slightly from our data, if they occured in-between our weather recording intervals... More about our weather records

Advertising

Hargeisa weather history for previous 24 hours

 ConditionsComfort  
Time TempWeatherWind HumidityBarometerVisibility
2:00 AM
Nov 24
75 °FPassing clouds.5 mph65%29.86 "HgN/A
1:00 AM75 °FClear.6 mph65%29.89 "Hg10 mi
12:00 AM75 °FClear.3 mph65%29.89 "Hg10 mi
11:00 PM
Nov 23
77 °FClear.5 mph61%29.89 "Hg10 mi
10:00 PM79 °FClear.5 mph61%29.92 "Hg10 mi
9:00 PM79 °FClear.6 mph61%29.92 "Hg10 mi
8:00 PM81 °FClear.8 mph58%29.89 "Hg10 mi
7:00 PM81 °FClear.7 mph58%29.89 "Hg10 mi
6:00 PM81 °FPassing clouds.8 mph54%29.86 "HgN/A
5:00 PM82 °FSunny.9 mph58%29.86 "Hg10 mi
3:00 PM84 °FPassing clouds.10 mph51%29.86 "HgN/A
2:00 PM84 °FPassing clouds.10 mph55%29.89 "HgN/A
1:00 PM84 °FPassing clouds.10 mph55%29.92 "HgN/A
12:00 PM84 °FScattered clouds.12 mph58%29.95 "HgN/A
11:00 AM84 °FScattered clouds.10 mph58%29.98 "HgN/A
10:00 AM84 °FScattered clouds.12 mph55%30.01 "HgN/A
9:00 AM82 °FPartly sunny.12 mph66%30.01 "HgN/A
8:00 AM77 °FPartly sunny.7 mph69%29.98 "HgN/A
7:00 AM75 °FScattered clouds.6 mph74%29.98 "HgN/A
6:00 AM73 °FPassing clouds.3 mph74%29.95 "HgN/A
5:00 AM73 °FPassing clouds.5 mph74%29.92 "HgN/A
4:00 AM73 °FPassing clouds.5 mph74%29.92 "HgN/A
3:00 AM75 °FPassing clouds.5 mph74%29.92 "HgN/A
Weather by CustomWeather, © 2014

See weather overviewHow to use our weather pages